QZS-3 (QZSS/PRN 189)

Last updated on Jan. 16, 2021, 6:29 a.m. UTC

1 42917U 17048A   21015.75604913 -.00000355  00000-0  00000-0 0  9991
2 42917   0.0749 141.7126 0001152 183.4138 189.4547  1.00268369 12426
UTC
Height (km)
Latitude
Longitude
Inclination
Orbital Period
UTC large
Height (km)
Speed (km/s)
/
Latitude / Longitude
Inclination (degrees)
Orbital Period (minutes)
Azimuth
Elevation
Range (km)
Doppler Factor
iOS Compass Heading
iOS Angle

Next 30 passes for location: Hong Kong

Rise time Rise Azimuth (degrees) Set time Set Azimuth (degrees) Duration Max altitude (degrees)

No matching passes for this satellites